Theta_e
316 317 317 317 316 316 316 318 320 320 320 320 320 319 319 318 318 316 316 316 314 314 314 314 314 314 316 324 326 326 324 322 322 320 319 325 329 330 331 332 331 335 337 336 336 336 348
311 315 317 316 316 315 315 318 320 320 321 321 320 319 317 317 318 316 316 316 314 314 314 314 315 312 325 326 328 327 322 321 321 320 323 323 327 327 328 330 331 332 334 335 336 337 349
308 312 315 316 315 314 316 319 320 320 320 320 320 318 317 317 317 317 317 317 315 315 314 314 315 315 322 319 328 328 327 320 319 322 323 326 327 327 327 329 330 331 332 333 335 337 335
308 312 315 315 313 313 316 319 320 320 320 320 319 318 317 317 317 317 318 317 315 315 316 315 313 320 316 321 326 325 327 328 322 323 324 326 324 326 328 327 328 330 331 334 335 339 337
313 313 313 312 312 314 318 319 320 320 320 320 319 318 316 316 317 318 318 317 315 315 315 312 318 321 323 326 323 324 324 327 330 326 324 324 326 326 325 326 326 329 332 334 339 339 337
312 310 309 309 311 315 319 320 320 320 320 320 318 317 315 316 316 317 318 317 316 317 323 322 321 322 323 328 321 322 324 324 326 324 323 325 319 323 320 321 327 329 331 333 340 340 337
308 307 307 308 312 316 318 320 320 320 321 320 318 316 315 316 315 317 318 320 323 325 324 318 323 325 327 328 323 321 323 324 323 322 323 321 322 321 321 320 324 328 329 330 330 330 333
307 306 307 310 314 317 319 320 320 320 321 321 318 316 315 316 316 318 316 319 325 324 321 324 326 324 325 327 323 323 325 325 322 322 322 321 321 322 322 323 323 323 325 327 328 329 329
306 306 309 314 317 318 319 320 320 319 319 320 318 315 314 317 318 322 319 320 325 322 321 324 327 328 327 322 321 321 322 323 323 322 321 319 321 322 323 324 324 322 323 326 327 327 324
306 309 314 317 317 318 318 319 319 319 319 320 317 313 314 316 322 320 320 326 325 324 323 326 331 331 328 323 323 322 323 322 322 321 321 319 321 321 321 322 321 323 322 324 325 322 321
311 316 317 317 317 318 319 319 319 318 319 319 314 312 313 314 317 318 326 324 325 323 335 331 332 331 323 323 324 322 324 323 323 322 323 322 324 324 325 325 322 322 322 324 323 321 320
314 315 317 319 319 319 319 319 318 318 318 316 313 313 314 316 317 323 324 325 325 326 332 333 330 327 325 324 325 324 323 323 322 323 322 321 323 325 324 326 326 326 324 318 317 318 319
314 318 318 318 319 318 319 318 318 318 316 313 313 314 315 314 319 325 323 321 326 331 330 333 331 326 326 327 327 323 323 323 322 323 322 323 325 325 325 326 324 325 318 319 319 321 321
318 318 317 318 318 318 318 317 318 316 313 312 314 318 321 321 320 321 324 322 333 333 334 332 331 328 328 326 326 326 326 324 322 322 321 325 327 329 326 325 325 325 319 319 324 321 321
317 316 317 317 317 318 317 317 315 313 311 312 317 321 322 327 322 321 320 326 329 332 332 331 330 329 327 327 327 325 325 325 325 321 324 324 329 329 327 327 325 326 324 319 321 319 322
316 315 317 316 316 317 316 314 312 310 312 315 318 320 324 327 322 322 322 327 328 330 329 329 330 331 334 331 326 324 326 329 328 324 323 327 329 328 330 327 327 328 324 324 318 326 329
313 316 316 315 315 316 314 311 309 308 312 317 321 324 329 329 323 319 325 325 328 328 328 330 329 331 333 333 331 329 332 332 332 331 328 329 328 330 330 331 332 330 332 328 324 321 324
313 316 314 314 314 314 313 309 308 306 312 317 318 330 328 324 322 320 324 326 327 328 326 328 327 328 332 333 334 333 334 333 333 332 335 331 326 332 334 330 331 331 336 334 334 337 330
315 315 313 313 314 314 312 308 307 306 310 312 317 324 326 325 323 322 323 329 329 328 329 329 329 329 329 331 334 333 333 331 330 330 331 329 328 330 329 328 328 330 329 328 328 327 334
315 314 314 314 314 314 311 307 307 307 313 311 319 332 323 318 318 325 325 328 331 329 328 328 329 328 329 330 329 331 333 332 330 332 341 330 325 327 331 331 329 329 333 336 329 333 331
315 314 314 314 314 313 310 306 307 308 320 317 320 328 323 328 326 324 325 328 332 329 329 327 329 329 330 329 329 330 328 327 330 331 326 326 329 329 328 327 326 333 334 341 343 343 344
315 314 314 313 314 313 309 306 305 309 319 320 319 321 320 324 324 327 326 329 332 330 329 328 327 326 323 324 325 325 324 326 328 321 325 321 324 324 322 324 325 334 333 335 341 341 340
314 315 314 313 313 313 309 306 304 307 316 319 320 318 321 325 326 324 323 328 327 329 328 325 324 323 322 321 320 318 317 319 321 320 320 322 321 321 324 323 325 326 332 331 338 336 338
314 315 314 314 313 313 309 306 304 306 311 315 319 317 323 329 326 323 323 326 325 323 325 322 321 323 321 317 316 317 317 316 315 315 313 321 322 321 324 321 326 329 326 329 337 335 334
313 315 314 314 313 313 309 306 304 305 313 317 319 318 319 327 325 323 323 321 320 321 322 321 322 320 316 316 317 320 322 323 321 321 321 317 319 322 323 322 329 331 325 326 329 334 332
314 315 314 313 313 313 310 306 304 305 312 318 320 319 319 324 319 321 324 321 319 320 321 321 319 316 318 316 319 325 327 325 327 324 319 317 318 322 323 327 330 328 326 325 327 331 330
315 315 314 314 313 313 311 307 304 305 310 316 320 320 319 322 319 318 320 322 320 321 322 320 320 316 316 317 321 325 325 325 329 326 325 321 321 324 324 329 334 328 327 326 330 327 327
317 315 315 314 313 313 312 308 305 305 309 315 321 318 318 315 318 318 319 322 319 318 320 318 322 319 319 324 322 322 321 322 323 324 321 323 323 324 321 329 335 326 327 331 326 323 324
319 316 315 314 313 313 312 309 306 305 307 313 318 318 318 317 319 322 321 319 321 319 314 316 320 319 319 323 324 322 325 322 320 327 325 328 324 326 324 327 324 324 324 324 323 323 323
Wind_Speed
14 14 15 15 16 17 18 19 21 22 23 24 25 25 25 25 24 22 18 15 12 10 10 10 9 9 3 2 8 5 4 12 13 10 9 1 4 2 3 7 8 6 2 0 6 4 8
15 14 14 15 16 17 18 20 21 23 24 25 25 26 26 26 26 24 19 15 11 9 9 8 6 6 2 2 4 8 6 11 11 11 6 5 4 9 9 5 4 6 6 4 6 7 10
15 15 14 15 16 17 18 20 21 24 25 26 26 27 27 28 27 26 21 14 10 8 7 5 4 2 0 10 3 8 7 6 15 12 4 10 9 4 5 9 5 9 7 7 6 5 5
15 15 15 15 16 17 18 20 22 24 26 27 27 29 29 29 28 27 20 12 7 5 5 4 1 1 6 6 10 15 13 8 10 12 15 19 18 4 2 4 8 4 4 3 8 7 6
15 15 15 16 17 18 19 21 23 25 27 28 29 29 30 30 30 28 19 9 3 2 2 1 2 1 9 8 5 11 13 11 13 13 15 16 5 2 8 3 6 4 5 6 5 7 4
16 16 17 17 17 18 20 22 24 26 28 29 29 30 31 31 30 30 17 4 2 0 1 1 3 3 6 4 7 9 15 12 5 3 6 1 5 2 5 5 4 4 5 6 1 5 5
16 17 17 17 18 19 21 23 25 27 29 29 30 30 31 31 32 29 14 1 3 2 3 8 6 4 6 5 8 6 11 6 4 4 3 4 3 7 13 7 9 7 7 6 5 8 5
17 17 18 18 19 20 22 24 27 29 30 31 31 31 31 31 33 23 5 2 6 1 7 14 13 7 15 11 3 4 8 4 5 6 2 5 6 14 10 11 7 7 5 7 6 7 2
17 18 19 19 20 22 24 26 28 30 31 31 31 32 32 30 26 4 6 11 11 12 2 7 7 6 6 8 6 8 9 4 2 2 4 7 12 4 7 13 11 8 3 4 7 6 5
17 18 19 20 22 24 26 28 30 32 32 32 33 32 32 31 4 10 9 12 20 3 4 6 3 6 4 6 4 12 16 6 3 10 8 8 17 8 10 8 8 4 8 5 6 5 3
17 18 20 22 24 26 28 29 31 33 34 33 34 33 31 24 15 4 6 21 20 4 4 4 4 5 8 9 3 3 16 3 5 8 3 9 8 10 5 7 5 8 5 3 3 5 5
17 19 22 24 27 28 28 29 32 34 34 35 35 34 31 11 11 10 15 16 6 5 5 3 5 6 6 2 4 3 6 1 4 4 3 9 6 6 8 4 3 1 5 9 6 3 3
19 21 24 27 28 27 28 29 32 33 36 37 37 32 26 12 5 2 16 4 5 3 6 4 5 7 6 6 4 7 8 8 5 2 4 7 8 7 6 3 7 5 7 4 5 4 6
21 24 26 28 27 27 27 30 32 34 37 40 37 22 11 17 5 6 4 5 2 5 6 4 5 4 7 7 6 7 5 5 6 4 3 1 8 3 1 8 8 5 8 5 2 2 6
23 26 28 27 27 26 27 30 33 35 38 41 29 11 8 4 12 6 5 4 7 5 4 5 5 4 4 5 6 6 9 9 7 10 8 4 5 5 3 4 10 5 2 7 4 3 3
24 26 27 27 27 26 29 31 33 37 38 31 20 9 6 5 15 8 4 4 4 4 7 4 3 4 2 5 8 7 6 5 8 11 6 3 1 3 6 5 5 2 2 5 4 3 3
25 26 26 26 26 27 29 31 33 37 38 19 7 4 3 12 15 5 3 6 6 8 6 3 2 3 4 4 4 7 7 2 7 5 8 1 3 7 6 6 4 7 5 5 5 4 1
24 25 25 26 26 27 29 31 33 36 38 15 6 2 16 24 3 0 2 5 5 4 5 4 5 6 3 6 7 8 5 4 1 3 4 3 5 2 4 6 5 7 2 3 4 4 1
23 23 24 24 25 27 29 31 33 35 33 10 3 3 17 11 2 2 5 8 7 6 2 4 6 4 4 4 4 6 6 7 9 5 2 3 3 3 11 6 7 7 6 4 1 4 1
22 22 23 24 25 27 29 31 32 35 27 3 1 3 4 4 1 2 4 7 6 2 5 4 4 4 6 9 9 5 8 9 13 7 8 7 5 6 5 4 4 6 13 11 6 3 1
22 22 23 24 24 26 29 32 33 35 20 6 1 2 2 2 4 6 4 5 6 5 6 10 8 9 3 5 5 5 8 7 6 8 8 5 3 2 2 2 6 5 8 14 12 3 6
21 21 22 24 24 25 28 31 33 32 14 3 2 3 4 3 6 5 5 8 6 5 6 5 8 9 11 6 3 2 4 3 1 7 5 5 1 3 8 6 7 5 13 8 10 5 9
21 21 21 22 24 24 26 29 32 31 17 7 7 5 3 6 7 4 5 4 5 3 8 5 7 5 8 3 3 6 6 5 6 3 2 2 3 3 2 5 3 5 7 7 4 5 1
20 20 20 21 22 23 24 27 29 28 26 5 6 3 3 4 4 4 7 5 6 4 4 5 8 5 4 5 5 2 2 5 6 6 3 4 4 3 2 4 1 5 3 6 8 7 3
18 19 20 20 21 21 23 25 27 25 21 7 8 4 2 1 4 7 13 5 6 6 3 5 2 3 0 6 4 5 5 5 6 8 10 5 4 3 3 2 3 3 5 2 2 2 2
17 18 19 19 20 20 21 23 26 25 20 7 8 10 2 2 5 5 3 5 3 4 6 2 4 3 5 3 3 2 3 5 1 6 3 8 7 5 2 2 3 4 7 8 4 2 8
15 16 17 18 18 18 20 21 24 23 20 15 6 17 1 1 4 5 4 1 2 3 1 4 6 7 4 3 3 1 1 2 2 3 2 4 4 4 1 3 1 5 8 4 2 4 5
14 15 16 17 17 17 18 19 21 22 19 17 2 17 8 0 5 4 4 3 4 3 2 4 4 5 5 5 2 2 2 1 4 3 5 3 3 0 2 3 4 5 4 4 3 5 5
13 14 15 16 17 15 16 17 19 21 18 16 4 16 14 4 5 9 8 3 2 1 4 3 5 2 3 3 1 0 3 3 2 1 5 3 4 5 4 4 4 1 5 3 1 3 4
Wind_Direction
26 24 22 19 18 16 13 11 9 7 4 2 360 356 354 351 348 345 336 327 320 311 305 306 319 336 358 346 252 209 195 192 208 228 246 145 303 292 265 309 344 71 170 38 300 348 155
22 18 17 15 13 12 10 7 6 3 0 357 355 354 352 350 347 345 337 326 319 310 303 307 327 339 27 295 290 195 177 186 201 216 249 187 248 283 271 326 12 313 302 283 288 300 160
16 15 12 10 10 9 7 4 2 1 357 354 353 351 349 348 347 343 337 325 318 308 304 308 326 8 321 239 127 186 173 185 195 209 254 266 282 347 309 332 354 323 328 319 274 255 194
11 10 9 7 7 5 3 2 0 358 355 353 350 348 347 346 344 342 337 325 316 312 314 318 302 102 248 284 311 239 223 213 197 227 246 274 291 293 51 323 343 318 329 316 280 207 220
7 6 6 4 2 2 1 359 357 356 354 352 349 347 344 343 343 340 337 325 311 357 357 9 80 111 271 311 231 217 202 211 209 225 246 275 291 301 353 42 347 356 263 246 284 200 168
5 4 2 2 0 358 356 356 354 353 352 349 347 345 342 342 341 339 340 325 305 194 57 51 277 323 268 224 211 214 220 225 185 226 340 289 46 352 346 69 264 283 342 308 206 232 201
3 2 0 359 358 355 354 352 351 350 350 348 345 343 340 339 338 336 343 302 30 18 217 205 189 246 280 257 184 224 236 174 170 85 189 278 91 238 249 219 246 295 286 278 279 297 194
359 358 358 356 355 353 350 349 349 347 346 345 343 341 337 337 333 331 326 170 221 176 300 229 237 255 270 274 152 255 202 136 118 195 177 356 248 241 240 270 265 278 244 315 295 278 145
356 356 355 354 352 350 347 346 345 343 342 342 340 340 336 334 330 1 305 253 315 335 357 288 191 200 220 153 196 224 142 166 167 222 212 184 244 208 212 262 268 273 258 280 266 326 330
356 355 354 352 349 346 344 343 342 340 338 339 339 338 336 334 353 329 280 349 344 193 44 277 211 253 187 165 286 197 187 145 198 216 231 224 259 250 266 227 192 242 264 226 318 46 282
356 354 352 349 345 343 341 340 340 338 337 337 337 335 332 330 298 264 314 316 342 136 10 155 182 190 159 158 220 266 176 86 212 250 57 258 305 314 312 265 134 226 249 322 333 337 18
354 351 349 346 343 341 340 340 339 337 336 336 333 331 324 316 287 266 336 333 359 49 270 214 149 151 125 250 273 36 151 173 205 232 274 254 243 217 214 273 208 175 23 19 34 66 358
352 348 346 344 343 341 341 340 338 336 336 335 329 325 308 267 240 214 338 42 53 137 306 189 184 161 154 189 240 152 169 210 181 102 280 326 273 262 169 266 347 75 56 353 357 7 227
349 347 344 344 343 343 342 341 339 337 337 336 328 322 294 260 249 266 6 58 127 254 254 300 149 129 178 179 237 182 164 217 257 125 44 214 326 347 184 181 192 202 146 155 240 244 274
347 345 344 344 344 345 345 343 341 340 340 336 332 322 283 278 194 202 74 84 207 227 245 341 71 106 282 250 181 161 204 215 219 165 176 170 277 320 169 157 137 267 177 190 151 162 37
345 345 346 347 347 347 350 347 344 342 343 336 329 325 262 150 159 127 80 228 249 256 311 37 77 165 189 254 170 162 160 238 243 192 149 216 354 347 328 32 19 134 231 16 12 343 319
346 347 349 349 348 351 351 352 349 347 347 341 333 5 274 165 143 58 152 232 270 264 255 87 316 19 293 20 193 174 200 289 49 53 101 200 98 300 44 15 348 11 3 43 111 119 168
348 350 351 350 349 353 353 354 353 354 350 350 347 16 166 153 63 128 192 217 292 337 330 343 39 32 31 33 9 40 62 68 31 345 61 318 126 59 152 136 74 65 37 59 107 278 187
351 352 353 351 352 354 355 356 356 360 353 342 349 273 176 174 125 279 285 279 247 264 80 40 24 27 4 50 48 16 62 27 39 65 70 323 22 31 344 1 16 34 3 28 333 52 327
353 355 352 355 355 357 357 357 356 359 341 285 27 16 326 40 145 216 298 280 292 99 68 88 15 34 42 43 14 23 22 31 38 38 27 78 58 118 154 220 246 9 48 49 88 70 354
354 353 354 356 357 358 360 0 358 2 358 141 127 281 172 284 292 257 154 262 32 23 51 20 34 39 41 61 34 34 359 355 16 13 12 86 94 123 167 59 73 69 38 64 66 303 94
351 353 355 357 358 0 2 3 3 8 5 14 58 30 345 285 288 346 354 11 61 21 50 14 83 63 55 84 111 307 22 24 317 342 36 348 289 108 355 351 50 71 31 74 87 66 79
349 351 354 357 358 2 4 6 7 9 24 32 358 332 101 293 329 62 326 42 21 74 19 68 96 86 44 341 242 239 204 232 230 202 253 76 118 86 295 336 37 31 1 16 103 26 200
347 350 352 354 358 1 5 7 8 11 15 20 355 328 47 311 10 350 26 71 68 60 107 36 65 86 241 316 316 3 209 236 245 266 155 136 103 95 178 29 33 175 347 66 104 76 87
344 349 351 353 356 1 5 7 7 7 11 16 359 18 61 305 295 356 14 15 20 1 58 104 63 199 329 35 38 16 350 11 58 56 53 85 101 63 115 138 91 358 344 337 137 134 321
340 346 349 351 355 359 3 6 6 6 8 16 18 357 91 108 316 296 31 16 41 339 1 40 337 330 59 79 71 125 186 202 43 145 70 67 79 102 81 145 223 241 318 306 125 183 14
332 340 346 349 350 355 0 4 5 5 5 5 15 4 352 74 281 22 38 324 357 25 91 325 338 356 48 44 53 100 302 123 79 77 8 24 15 93 48 118 305 338 306 355 99 270 333
320 332 340 344 347 351 356 1 4 3 6 6 27 17 15 14 285 13 15 39 2 57 105 283 38 354 24 50 67 308 75 318 71 343 133 115 108 60 63 94 252 319 21 94 259 314 314
307 321 330 338 342 345 349 355 0 2 4 8 345 7 353 176 243 312 299 274 263 210 147 358 167 173 189 79 14 93 25 30 137 155 10 41 165 169 145 203 213 347 133 178 185 249 306